Location: Bydgoszcz
(53.1640°N, 17.9142°E)
Time: 08:55:32
(UTC+02:00)

PCSat - Pass Details

Date: 23 April 2024
Orbit: 783 x 792 km, 67.1° (Epoch: 27 May)

Event Time Altitude Azimuth Distance (km) Brightness Sun altitude
Rises 00:39:56 0° 303° (WNW) 3,295 13.3 -24.2°
Reaches altitude 10° 00:43:04 10° 321° (NW) 2,367 12.7 -24.2°
Maximum altitude 00:46:55 19° 7° (N) 1,810 12.3 -24.2°
Drops below altitude 10° 00:50:46 10° 52° (NE) 2,368 12.5 -24.2°
Sets 00:53:54 0° 70° (ENE) 3,297 13.1 -24.2°
